Wind_Speed
41 40 40 40 39 38 38 38 38 38 37 37 38 39 40 40 39 38 37 36 34 34 33 32 30 28 27 27 26 25 24 23 23 23 23 23 23 23 22 20 20 20 19 19 18 18 18 18 18 17 15 15 14 13 13 12 10 10 10 11 11 10 10 9 9 12 14 13 13 12 12 13 13 13 15 16 16 16 16 16 17 19 19 19 18
40 39 38 39 39 38 38 38 38 37 36 36 36 38 39 40 41 39 38 37 36 35 34 33 32 30 29 27 26 26 25 25 24 24 25 25 25 25 25 24 23 22 22 22 22 21 20 20 20 19 18 17 16 14 14 14 13 12 12 12 12 11 11 12 11 11 15 17 16 15 15 15 16 17 18 19 19 19 19 18 19 19 19 18 17
39 38 38 38 38 38 37 37 38 37 36 36 36 37 38 40 40 40 40 39 37 36 35 34 34 32 31 30 28 28 27 26 26 26 27 27 27 27 27 26 25 24 24 24 24 23 23 23 22 21 19 20 19 17 15 15 14 14 14 14 14 14 13 14 14 13 16 19 19 18 17 17 19 19 19 20 20 20 20 20 20 18 17 17 16
38 38 38 38 37 37 36 37 37 37 38 37 37 36 37 37 38 39 39 39 38 37 36 35 35 34 33 32 31 30 29 29 28 28 28 29 29 29 28 27 27 26 25 25 24 23 23 24 25 23 21 21 21 20 18 17 17 17 17 17 17 16 15 16 16 16 17 19 20 20 19 20 21 21 21 21 21 20 20 21 20 17 16 16 13
37 37 37 37 37 37 37 36 36 37 39 39 39 38 36 35 36 37 38 38 37 37 37 36 36 35 35 34 33 32 32 31 31 30 30 30 30 30 29 28 27 26 26 25 25 24 23 24 25 24 23 23 23 22 20 20 20 20 20 20 19 19 18 17 17 17 18 20 22 22 20 20 21 22 22 21 20 20 20 20 18 16 16 14 9
36 36 36 36 36 36 37 36 36 37 38 39 39 39 38 36 35 36 36 37 37 37 37 38 37 37 37 36 35 35 34 33 33 32 32 31 31 31 30 29 28 27 26 26 26 26 25 25 25 24 24 24 24 24 22 22 21 22 22 21 20 20 19 19 19 18 19 20 21 22 21 21 22 23 21 20 19 20 20 19 18 17 14 11 8
36 35 36 36 36 36 37 37 38 38 38 38 39 39 39 38 37 36 36 36 36 37 37 38 39 39 39 39 38 37 35 35 34 33 33 32 31 31 31 30 30 29 28 28 27 27 27 27 26 26 25 25 25 25 25 24 24 23 23 22 21 20 20 20 20 19 19 20 20 21 21 21 22 22 21 20 19 18 18 19 20 17 12 9 10
36 36 36 35 36 37 38 38 38 38 38 37 37 38 38 39 39 38 36 35 36 36 37 38 38 39 40 40 40 38 37 36 35 34 34 33 32 32 32 32 31 31 30 30 29 28 28 28 28 28 28 28 27 26 26 26 26 25 25 24 22 22 21 22 22 21 21 20 21 21 21 22 23 23 22 19 16 15 15 16 19 17 12 9 11
35 35 35 36 37 37 37 37 37 38 37 37 37 38 38 38 38 38 37 36 37 37 37 37 36 37 38 39 39 39 38 38 37 36 36 35 34 34 34 33 33 32 32 31 30 30 29 29 29 29 29 29 29 28 27 27 27 27 27 26 24 23 23 23 23 23 22 21 21 21 21 22 24 24 21 17 14 14 15 15 16 15 11 10 12
35 35 35 36 38 37 37 36 36 36 36 37 38 38 38 38 37 37 37 38 38 37 37 36 36 35 36 37 38 38 38 39 39 39 38 37 36 36 35 35 34 34 33 32 32 32 31 31 30 30 29 29 29 29 29 28 27 27 27 26 25 25 24 23 22 22 22 21 22 22 20 22 25 24 19 16 15 15 15 13 14 13 12 12 12
33 35 36 36 36 36 36 36 36 36 37 38 38 38 38 38 38 38 37 38 38 38 37 37 37 36 36 36 37 38 39 40 40 40 40 39 38 37 36 36 35 35 34 34 34 34 33 32 32 31 30 30 30 30 29 29 28 27 27 26 26 26 26 25 24 22 22 21 23 22 20 23 27 25 19 17 17 16 15 14 13 13 13 12 10
35 34 35 36 36 37 36 36 36 37 37 38 38 39 38 38 38 38 38 38 38 37 37 38 38 37 36 36 36 37 39 41 41 42 41 41 40 38 37 36 35 35 35 35 35 35 34 34 33 33 32 32 31 31 30 30 29 29 28 27 26 26 27 28 27 25 24 22 23 23 23 25 28 26 21 18 17 15 15 15 14 14 14 12 11
32 36 37 36 37 37 36 36 36 37 38 39 39 38 38 38 38 38 38 38 37 37 38 38 38 38 37 37 37 38 39 41 42 42 42 43 42 40 39 37 36 35 36 36 36 36 35 34 34 34 34 33 32 32 31 31 31 30 29 29 28 27 27 28 29 29 29 27 25 26 27 27 28 27 24 20 18 16 16 17 17 16 15 14 13
20 28 34 37 36 36 36 36 37 38 38 38 38 37 37 38 39 38 38 36 36 37 38 38 38 38 38 38 39 39 39 41 42 42 43 43 43 42 41 39 38 37 37 36 36 36 36 35 35 35 35 34 34 33 32 32 31 31 30 29 29 28 27 28 28 29 30 30 30 31 32 31 31 30 28 25 22 20 19 18 18 16 15 14 12
21 23 27 32 34 35 36 36 37 37 37 37 36 37 37 38 38 38 37 36 37 38 38 37 38 38 39 39 39 39 40 41 41 42 42 43 43 42 42 41 39 38 38 37 37 37 37 36 36 35 36 35 35 34 33 32 32 31 31 30 30 30 28 28 28 28 29 30 31 32 33 33 32 32 31 29 27 24 21 19 16 15 14 13 10
28 27 28 30 32 34 35 36 36 36 36 36 36 37 37 37 38 37 36 36 36 36 36 37 38 38 39 39 39 40 41 42 41 42 43 43 43 42 42 42 40 40 40 39 38 38 38 37 36 36 36 36 36 35 34 32 31 31 32 32 31 31 30 29 28 28 29 29 30 30 30 30 31 31 31 31 29 26 22 19 16 14 12 11 11
23 27 29 32 33 34 35 35 36 36 35 35 36 37 37 37 38 37 35 35 35 35 36 37 38 38 38 39 39 41 42 42 42 42 43 42 42 42 42 42 41 40 41 41 40 39 39 38 37 36 36 37 37 36 34 32 31 31 32 33 32 32 32 32 30 30 30 29 29 29 28 27 28 29 29 29 28 25 21 18 17 15 12 12 12
17 21 26 30 31 33 35 36 36 35 35 35 36 37 37 37 37 36 36 36 36 36 36 36 37 38 39 40 41 41 41 42 42 42 43 43 42 42 42 41 40 40 41 41 40 40 40 39 38 37 37 38 38 37 35 32 31 31 32 32 31 32 34 34 32 31 31 30 30 30 30 29 28 27 26 25 23 23 22 21 20 17 15 16 15
13 17 22 26 27 30 33 35 35 35 35 36 37 36 36 37 36 36 36 36 36 36 35 35 36 37 39 40 41 41 41 42 42 43 44 44 42 42 42 39 38 39 40 40 40 40 40 39 38 37 38 38 38 38 36 34 32 32 33 31 30 33 35 34 32 31 31 30 30 30 30 30 28 26 24 22 21 22 23 23 22 19 19 19 17
16 16 18 22 25 27 29 32 33 34 35 36 36 36 36 36 35 35 36 36 36 35 35 35 36 37 38 38 39 40 41 42 42 44 45 44 43 43 41 39 38 39 40 39 38 38 38 39 39 38 38 39 39 38 37 35 34 34 33 31 31 34 35 33 31 31 31 30 30 29 28 28 27 25 23 22 21 21 22 22 21 19 20 20 18
19 19 17 18 21 24 27 29 31 32 34 35 35 35 35 35 35 35 36 35 35 34 35 35 36 36 37 37 38 40 41 42 43 44 45 45 44 43 42 41 40 40 40 39 38 38 38 38 39 39 39 38 38 38 37 36 35 35 34 33 34 35 34 32 32 31 29 29 29 28 28 27 26 25 24 23 22 21 20 20 19 17 17 18 17
19 19 19 17 17 19 23 28 31 32 32 33 32 33 34 34 34 35 35 34 34 35 35 35 35 35 35 36 38 40 41 42 44 44 45 45 44 44 44 44 43 42 39 38 39 39 39 40 40 40 38 37 36 36 35 35 35 35 35 35 35 34 34 34 33 31 29 28 28 28 28 27 27 25 24 24 22 20 19 19 17 15 15 16 16
19 19 19 18 16 15 16 21 27 30 31 31 32 33 33 33 34 34 34 34 34 34 35 34 33 33 33 34 37 39 40 42 43 44 45 45 45 45 45 45 45 44 41 40 40 41 41 41 41 41 39 37 36 34 33 33 33 33 34 35 35 35 34 34 33 31 29 28 27 27 28 28 27 26 25 24 23 21 19 18 16 15 15 15 15
20 19 18 17 17 16 16 17 20 25 29 31 32 32 32 32 33 34 34 33 32 32 33 33 32 31 32 33 35 37 39 40 41 43 45 46 46 46 46 46 46 45 45 44 43 42 41 42 42 41 40 38 37 35 34 33 32 32 31 32 33 33 32 31 31 30 28 27 27 28 30 30 28 27 27 26 24 20 18 15 14 14 15 14 15
19 19 19 18 18 18 18 18 18 21 25 29 31 32 32 32 32 32 33 32 32 31 31 31 31 31 31 32 34 36 37 38 39 41 44 45 46 47 47 47 47 47 48 47 45 44 44 43 42 41 40 38 36 35 34 33 32 31 31 31 32 32 31 31 30 28 27 28 29 30 31 31 31 30 28 25 21 18 16 15 15 15 15 14 15
18 18 19 20 19 19 19 20 20 20 23 27 31 33 33 32 32 32 32 32 32 32 31 31 31 31 31 33 34 34 34 35 38 39 40 42 45 47 48 48 48 48 48 48 48 46 45 44 43 40 38 36 35 34 33 33 31 30 29 29 30 32 31 31 30 29 29 30 31 33 33 33 32 30 27 23 21 19 17 16 16 16 16 17 17
17 17 18 20 21 21 20 21 21 21 22 26 30 32 33 33 32 31 31 32 32 32 31 30 30 30 31 32 32 30 31 33 36 37 37 40 44 47 48 48 48 48 48 49 49 48 47 45 41 38 35 34 33 32 30 29 27 26 27 27 29 30 29 29 29 30 30 31 33 34 34 32 31 29 26 23 21 19 17 15 15 16 18 19 19
17 18 19 19 20 21 21 21 22 22 23 25 29 32 32 33 33 34 35 36 34 32 31 31 32 33 33 31 29 27 29 33 37 37 38 40 42 44 45 47 48 48 48 49 49 49 47 41 36 33 32 31 30 28 27 24 23 23 24 26 27 28 27 27 28 29 30 31 32 32 31 30 29 27 25 22 20 18 15 14 15 18 21 22 21
19 19 19 18 18 19 20 21 22 23 23 24 29 33 35 36 37 37 40 42 41 38 36 36 37 38 36 33 30 28 30 36 41 42 41 41 42 43 44 46 48 48 49 49 48 45 41 35 31 30 29 28 27 26 23 20 19 19 21 24 26 28 28 28 29 30 31 31 32 31 30 29 27 25 22 21 20 18 16 16 18 21 24 24 23
19 17 17 17 16 17 18 21 24 25 23 23 26 31 35 39 40 40 40 42 45 46 44 43 44 42 39 37 37 38 39 43 45 43 41 41 42 43 44 47 47 47 47 46 42 38 33 29 29 30 28 26 25 23 20 16 14 15 18 23 28 31 31 31 32 33 33 33 33 31 28 26 24 24 23 22 20 19 18 19 22 24 26 26 25
18 17 16 16 17 17 19 23 25 26 25 23 23 26 29 33 38 41 41 41 43 47 49 50 49 45 41 40 41 43 46 45 41 37 37 39 40 41 42 43 44 44 44 41 37 34 31 28 28 28 25 23 24 22 17 12 11 12 18 25 32 35 34 33 34 36 35 35 33 30 27 25 26 26 26 24 23 22 23 24 25 26 28 28 26
17 17 17 17 17 18 20 23 25 25 25 24 23 23 24 26 30 36 40 40 40 43 48 51 51 47 45 43 41 41 43 42 39 36 35 35 36 39 40 41 40 41 40 37 34 32 30 29 28 25 22 22 23 17 11 14 15 17 24 29 33 36 34 33 34 35 35 34 33 30 28 28 28 29 28 27 25 25 26 27 27 27 27 27 26
17 18 18 18 18 18 19 22 24 24 24 22 22 23 23 23 23 27 32 36 37 38 42 47 49 49 47 46 43 41 40 40 39 39 37 35 34 35 36 38 38 37 36 35 33 30 30 30 28 23 20 18 14 11 16 18 22 29 32 32 35 37 35 32 31 31 31 32 31 29 27 25 25 26 26 26 25 25 25 27 27 26 25 25 25
18 18 17 17 18 18 19 20 21 21 19 18 20 23 25 26 25 24 25 27 29 32 36 41 45 48 48 48 46 44 42 38 37 37 37 37 36 34 34 35 35 34 35 34 32 31 31 29 23 18 16 15 15 19 23 26 30 32 31 32 36 37 33 30 29 29 29 30 30 29 26 24 24 24 24 23 23 23 24 25 26 26 25 25 25
20 19 18 17 17 17 19 19 19 18 17 15 15 18 22 25 26 26 25 24 26 29 33 37 40 44 47 48 46 44 43 40 37 35 34 35 36 34 31 30 30 32 33 33 32 33 33 27 19 18 20 22 24 25 27 27 27 28 29 31 35 34 30 28 29 30 30 30 30 28 26 24 24 25 24 23 23 24 25 26 27 27 27 25 24
20 20 19 18 17 17 18 18 18 17 18 17 17 19 21 23 24 25 26 26 27 28 28 29 32 36 41 44 43 42 42 40 38 35 34 33 35 34 32 30 30 32 32 32 34 35 31 23 19 22 26 28 28 27 27 27 27 28 29 30 32 32 31 31 30 30 30 29 28 27 27 25 25 25 25 25 25 26 27 27 28 28 27 25 22
19 19 20 19 19 18 18 19 20 21 20 21 21 22 23 23 23 25 25 24 25 25 23 23 25 29 34 38 40 40 39 37 35 34 34 33 33 33 33 32 32 32 31 32 35 33 26 21 22 26 29 29 27 27 27 27 26 27 27 28 29 30 32 33 31 29 28 28 26 26 27 27 26 26 26 25 25 25 25 26 27 27 26 23 22
17 18 19 19 20 20 19 19 22 24 25 25 25 23 23 23 24 25 25 25 25 25 24 24 25 27 30 34 37 36 33 30 29 30 32 32 31 32 33 33 32 31 32 34 34 27 22 22 26 30 31 28 25 25 25 26 26 25 24 25 28 31 34 35 32 28 26 26 25 25 25 25 24 25 25 25 24 23 23 23 24 24 24 23 22
16 18 19 19 19 19 19 19 21 24 26 27 26 24 24 25 24 23 23 23 23 24 25 25 27 28 29 30 31 29 27 26 28 30 31 32 32 33 34 33 31 30 32 34 29 21 18 20 24 26 27 25 23 25 26 27 29 28 26 27 30 33 34 35 33 29 27 26 25 24 24 24 24 24 25 24 23 22 22 22 22 22 22 22 23
16 16 17 18 18 19 19 20 21 23 24 26 25 24 23 24 24 22 21 20 19 21 23 25 27 30 30 30 30 29 27 27 29 30 29 29 30 30 30 30 31 32 33 29 22 16 16 18 19 20 21 21 21 25 28 27 27 29 31 32 32 33 34 35 33 29 27 26 25 25 25 25 23 23 23 22 22 20 20 19 20 19 19 19 21
14 14 16 17 17 17 17 18 19 21 23 25 26 23 21 21 21 21 22 22 22 23 25 25 25 27 28 28 29 28 26 24 23 22 21 21 21 22 23 25 27 29 27 21 15 14 16 17 18 19 20 20 19 22 26 28 28 30 31 28 26 27 29 29 27 25 25 25 23 22 20 18 17 18 19 19 18 17 17 16 17 17 16 16 18
13 13 14 15 16 16 16 17 18 19 21 25 26 23 20 20 20 20 21 23 25 26 25 22 21 21 21 20 21 21 19 16 14 13 13 13 13 13 13 14 16 18 17 14 13 16 18 19 19 19 20 21 18 16 19 25 29 30 27 22 19 20 21 20 18 18 19 20 20 19 16 13 13 15 15 15 14 15 16 16 15 15 15 15 14
12 12 13 14 16 16 16 17 18 18 18 21 25 24 21 19 21 23 24 24 24 24 22 20 19 18 17 16 17 17 15 14 15 15 15 14 14 13 12 11 11 12 11 10 10 14 18 20 20 20 19 19 17 15 16 20 24 25 23 20 18 18 18 17 17 17 18 19 19 19 16 14 14 14 14 14 13 14 15 15 15 15 14 14 13
12 12 14 15 16 18 19 19 19 18 17 17 19 22 22 20 21 24 25 25 23 22 22 21 19 19 18 18 19 20 20 20 21 21 20 20 19 18 17 15 14 14 14 13 14 17 20 22 22 22 21 19 18 17 17 19 20 21 22 21 20 20 20 20 20 19 19 19 18 17 16 16 16 16 16 15 16 17 17 17 16 16 14 13 11
13 14 16 17 18 20 20 21 21 20 18 17 14 13 15 18 21 22 22 21 19 18 18 19 20 21 23 23 24 25 26 25 25 25 25 25 24 23 22 21 20 19 18 18 18 21 24 25 25 25 25 24 23 22 22 22 22 23 23 23 23 22 21 20 19 19 19 19 19 19 19 19 19 19 19 19 19 19 19 17 16 14 13 11 10
15 16 17 19 20 22 22 23 23 23 22 22 21 17 10 4 9 12 13 14 17 19 21 22 23 25 27 28 29 30 30 30 29 29 29 29 29 29 28 27 27 26 25 25 25 26 27 28 28 29 29 29 29 28 27 26 26 25 25 24 24 24 23 22 21 21 21 21 22 22 22 22 21 20 20 20 19 18 17 16 14 13 12 11 9
17 18 18 19 22 24 25 25 26 26 26 26 26 25 22 16 9 9 12 14 19 23 25 26 27 28 30 31 31 31 31 31 31 32 33 33 34 34 33 33 34 34 33 32 31 31 31 32 33 33 32 32 32 32 31 30 29 28 27 25 25 25 24 23 22 21 21 21 21 22 22 22 21 20 19 18 17 17 16 15 13 12 11 10 9
20 20 20 20 22 24 25 26 29 29 29 28 29 29 28 24 20 17 16 16 18 22 25 27 28 28 30 31 30 30 31 32 32 33 35 37 37 37 37 38 39 40 40 39 37 36 36 36 36 35 34 33 34 34 33 31 30 29 28 27 26 25 24 23 22 22 21 21 20 20 21 21 20 19 18 17 16 16 15 15 14 12 11 10 10
20 22 22 23 24 25 24 25 27 29 30 30 31 32 31 28 25 23 20 19 18 19 22 25 26 28 31 33 33 33 33 33 32 32 34 37 38 39 40 41 41 42 42 42 41 40 41 41 39 38 36 34 34 35 34 32 31 30 29 27 25 24 23 23 23 21 21 20 20 20 20 20 20 19 18 17 17 16 16 16 15 13 13 12 11
19 22 24 24 25 25 26 26 27 28 29 29 30 32 33 32 29 27 25 24 22 20 21 23 25 28 30 32 34 35 36 35 34 33 34 35 36 37 40 42 42 42 43 43 42 42 43 43 41 38 36 34 34 34 34 33 32 30 28 26 24 23 22 22 21 20 19 19 19 18 18 19 19 19 18 17 16 16 16 16 15 14 13 13 12
19 21 24 25 25 25 27 28 29 30 30 29 28 30 33 33 31 30 29 28 26 23 22 23 26 28 30 31 32 34 37 37 36 35 36 36 35 37 40 41 41 41 41 41 43 44 44 42 39 37 34 33 33 33 32 31 29 27 25 24 23 22 22 21 20 18 17 16 16 16 16 17 18 18 18 17 16 16 16 15 14 13 12 12 11
Wind_Direction
202 203 205 206 207 208 210 211 212 214 215 216 219 221 223 223 223 223 225 226 228 227 228 228 228 229 230 231 233 235 238 239 238 238 239 241 243 244 245 246 246 245 245 244 244 246 250 254 254 253 255 259 262 259 254 252 255 255 252 255 257 260 261 250 248 271 289 300 308 317 325 324 320 324 334 340 344 344 345 349 351 350 352 352 350
203 204 205 207 208 209 210 211 212 214 215 217 219 220 222 223 223 223 225 227 228 229 229 229 228 228 228 229 231 233 236 239 240 241 242 243 244 244 246 248 249 250 249 250 249 249 251 254 255 254 255 258 260 261 260 255 253 256 255 252 256 262 267 265 261 269 286 298 305 309 316 320 319 322 330 334 336 339 342 348 352 352 355 353 348
204 205 205 207 209 210 211 211 212 213 214 217 219 220 221 222 222 223 225 227 229 230 230 230 229 228 229 230 231 233 235 238 240 242 244 245 246 247 247 249 250 253 254 252 251 251 251 251 254 256 257 258 258 259 261 259 256 258 260 259 260 264 268 271 269 266 278 290 297 302 308 314 314 317 324 327 330 334 337 343 350 354 356 352 347
204 205 206 208 210 210 212 212 212 212 214 216 219 221 221 221 222 222 224 226 227 229 230 230 230 230 231 232 234 236 237 238 239 242 244 246 247 248 249 250 252 254 255 254 251 252 251 250 253 256 259 260 258 256 257 259 258 259 262 264 264 265 268 272 273 272 273 280 288 295 301 305 308 313 318 321 326 329 333 340 347 351 353 351 350
204 204 206 208 209 210 212 212 212 213 214 215 218 221 222 223 223 224 224 225 226 228 228 228 229 231 233 235 237 239 241 242 242 242 244 246 247 248 250 252 254 255 257 256 254 253 253 252 254 256 259 261 258 255 256 258 260 261 263 266 266 267 269 271 275 277 274 275 283 292 298 301 304 309 314 318 322 326 331 339 345 347 350 352 352
204 204 205 207 209 211 211 212 213 214 215 216 218 220 222 224 226 227 227 227 227 228 229 229 230 232 235 238 241 243 244 244 244 245 246 246 246 247 249 252 255 257 258 258 257 257 256 256 257 257 258 260 258 256 256 259 261 261 262 265 268 270 271 271 274 277 276 277 282 288 294 298 302 306 311 315 320 325 331 337 341 345 347 348 346
203 204 205 207 209 211 212 213 214 215 217 218 218 220 221 223 226 228 230 230 230 230 230 231 233 234 237 239 242 244 244 244 245 245 246 246 246 247 248 251 254 256 258 259 259 259 258 258 259 258 257 258 259 259 260 261 261 261 261 264 268 270 271 271 273 273 274 277 279 283 290 295 299 301 304 310 316 324 332 334 335 339 341 337 337
203 203 205 207 209 211 212 214 215 216 217 218 220 221 221 223 225 227 229 231 232 232 232 233 235 236 238 239 241 242 243 243 244 244 245 246 246 247 248 250 253 255 257 258 258 259 260 260 261 260 258 257 258 260 262 264 265 264 264 263 265 268 269 271 273 272 272 275 277 281 285 289 293 295 299 307 315 324 331 329 327 329 329 326 332
203 204 205 207 210 212 213 213 215 216 217 218 219 221 223 224 225 226 227 229 232 234 235 235 236 236 237 239 240 240 241 242 243 244 244 245 244 246 248 249 251 253 255 257 258 259 261 261 262 263 262 260 260 261 262 265 268 268 267 266 264 266 267 269 270 269 269 271 273 277 281 284 289 292 296 305 313 318 323 322 320 321 318 319 327
203 204 206 209 210 212 212 213 214 215 216 218 219 221 223 224 226 227 227 228 230 232 234 236 236 237 238 238 239 239 240 241 243 244 244 244 244 245 246 247 248 250 252 254 256 258 260 262 263 265 265 265 265 265 264 264 266 268 270 269 268 267 267 267 265 265 265 267 271 274 276 280 286 289 293 301 308 312 315 314 314 314 313 318 326
205 205 208 210 211 212 212 212 214 215 216 218 219 220 222 223 225 227 228 230 231 231 233 234 236 237 238 238 239 239 240 241 242 243 244 245 245 244 244 246 247 248 249 251 254 257 258 260 262 264 265 266 267 267 266 266 265 266 268 269 268 268 268 267 266 265 264 265 269 272 272 276 284 288 291 297 303 306 309 309 308 308 310 315 319
204 207 210 210 211 212 212 212 213 214 216 217 218 220 221 222 224 225 227 229 230 231 232 233 235 236 237 238 239 239 241 243 243 244 245 245 245 244 243 244 245 246 248 250 252 255 256 258 260 261 262 264 266 267 268 268 268 267 268 269 268 268 268 268 267 267 266 266 268 271 271 274 282 286 289 294 297 299 302 304 302 304 304 301 300
207 206 209 211 212 211 211 212 213 214 216 217 218 219 220 221 223 224 226 228 229 230 232 233 234 235 235 236 238 239 241 243 244 244 245 246 246 244 242 242 243 245 247 249 251 253 255 256 256 258 260 262 264 265 266 268 270 270 269 269 269 268 268 269 269 269 269 267 267 270 273 274 278 284 288 290 290 291 293 297 300 302 298 294 293
230 220 212 210 211 211 211 212 213 215 217 217 218 218 219 221 223 224 226 226 227 229 231 232 233 235 235 236 237 239 241 242 244 245 245 246 246 245 243 242 242 243 246 248 250 252 253 254 254 256 259 261 262 263 264 266 269 270 271 270 270 271 271 270 270 270 270 268 266 269 274 275 276 284 289 287 285 287 290 295 299 300 297 294 291
228 237 227 216 212 212 212 213 214 216 217 217 218 218 219 221 223 224 225 225 226 228 229 231 232 233 235 235 236 239 241 242 244 245 246 247 247 246 245 243 242 243 245 247 248 250 252 253 252 254 257 260 261 262 263 265 267 269 270 271 272 274 274 272 271 272 274 275 273 273 277 278 279 284 287 285 284 288 291 294 296 296 293 287 280
211 219 225 222 216 213 213 213 214 216 216 216 217 218 220 221 223 223 224 225 227 228 228 230 231 232 234 234 235 237 240 242 243 244 246 247 246 245 244 243 242 242 244 246 247 249 251 251 251 252 255 258 260 261 262 263 264 265 267 270 271 273 274 274 272 273 276 279 281 280 281 282 281 282 283 282 283 287 290 291 290 286 277 267 266
225 218 220 221 218 215 214 214 216 217 216 216 218 219 220 221 222 222 223 224 226 227 228 229 230 231 232 232 233 236 239 240 242 243 245 246 245 244 243 241 241 241 244 246 247 248 249 250 250 251 252 255 259 260 261 259 259 261 264 267 269 271 273 275 274 274 275 277 279 281 282 283 282 282 281 280 281 282 282 281 281 276 257 247 254
250 236 229 225 220 217 216 216 217 217 217 217 219 220 220 222 222 222 221 223 225 227 228 229 230 230 231 232 233 234 237 239 240 241 244 244 244 243 241 239 239 241 244 246 247 248 249 250 250 250 251 254 257 259 259 257 256 257 259 261 264 267 272 274 274 274 275 276 276 277 279 280 280 281 280 278 277 276 274 275 277 270 250 243 249
285 260 243 234 228 223 220 219 219 218 219 219 220 220 221 222 223 222 222 223 226 227 228 229 230 231 231 232 234 234 236 239 239 240 242 243 242 241 239 236 237 240 242 245 247 248 249 250 250 249 250 254 256 258 257 255 254 255 256 256 256 262 269 272 273 274 275 275 275 276 277 278 278 278 277 276 275 273 273 276 276 264 249 247 248
325 301 267 247 238 233 228 226 224 222 222 222 222 222 222 222 221 221 222 223 225 226 228 228 230 232 232 233 234 234 236 238 239 240 241 241 241 240 237 233 234 238 241 243 245 247 248 249 250 250 251 253 255 257 256 254 254 255 254 250 251 260 268 270 271 272 274 275 276 277 277 278 278 277 275 274 273 270 272 277 275 264 253 251 247
330 323 301 269 251 244 239 235 233 231 228 227 226 224 223 222 221 220 220 222 223 224 226 228 230 232 233 233 234 235 236 237 239 240 241 240 240 239 235 233 234 236 239 241 243 245 247 249 250 252 252 253 255 257 256 255 255 255 253 252 255 263 268 269 269 271 272 274 275 275 275 276 276 274 273 272 272 271 273 276 275 267 256 251 248
325 321 313 295 275 261 252 245 241 238 235 232 229 228 226 224 222 221 220 220 221 223 225 226 228 231 233 233 234 236 237 238 238 239 240 240 240 238 236 235 236 235 236 239 241 244 246 249 251 254 255 256 258 259 259 258 256 254 255 257 260 264 265 265 267 268 268 269 271 270 270 270 269 269 269 270 270 271 272 271 270 268 261 253 250
323 317 312 305 299 291 275 259 248 241 238 235 232 230 228 225 223 221 219 219 220 222 224 225 226 229 231 233 234 235 237 238 238 239 240 240 240 239 239 239 239 236 234 237 240 243 246 248 251 254 256 257 260 262 263 261 258 257 260 261 261 262 262 262 263 263 263 264 264 263 264 265 265 265 266 268 271 272 269 266 264 262 257 251 247
321 314 309 304 302 301 295 280 262 248 240 236 233 231 228 225 223 221 219 218 218 220 223 223 224 226 228 230 233 234 235 236 238 238 239 240 240 240 240 240 240 238 236 238 240 242 245 247 250 253 255 257 259 262 263 263 262 262 264 263 261 259 258 258 259 260 260 259 257 256 258 260 261 263 266 271 273 270 265 262 259 254 249 244 236
317 311 308 303 301 299 296 290 279 262 247 237 232 230 227 224 222 220 219 217 217 220 221 221 221 224 226 228 231 232 233 234 236 238 239 239 240 241 241 241 241 239 237 238 241 243 245 248 250 252 254 256 258 259 260 260 261 263 264 262 260 258 257 257 259 258 256 254 253 253 254 257 260 265 269 270 267 260 256 254 252 245 234 224 217
312 310 309 305 303 301 297 292 287 276 259 244 235 231 227 223 221 220 218 216 217 219 220 219 220 222 225 228 230 230 231 232 235 236 237 237 239 240 241 241 242 241 240 240 243 245 246 248 249 250 252 255 256 257 258 259 260 261 261 261 260 259 259 260 259 256 252 251 252 252 254 257 261 264 265 261 254 252 253 251 246 235 218 207 204
306 305 305 302 300 298 295 291 288 281 267 250 238 232 229 224 221 218 216 215 217 218 219 219 219 221 224 227 228 228 228 231 233 234 234 234 237 238 239 239 240 240 239 240 241 243 244 245 246 248 250 253 254 256 258 259 259 259 259 260 260 261 261 262 261 258 254 253 253 255 256 258 258 258 255 251 249 251 251 245 238 225 210 203 204
299 299 300 297 294 293 292 290 288 283 272 254 239 231 227 223 220 219 217 216 215 216 217 218 220 222 224 225 225 225 227 230 231 231 230 231 233 234 235 237 237 237 238 239 241 242 243 244 245 248 249 250 252 254 256 255 254 255 257 259 261 261 260 259 258 257 257 256 256 255 255 254 252 250 248 245 245 247 244 235 228 218 207 201 199
296 296 297 295 291 289 290 290 289 285 276 259 243 234 228 223 220 221 221 220 219 218 218 218 221 223 224 224 221 218 223 229 233 232 231 231 232 232 233 237 237 237 240 241 241 240 240 241 243 246 247 248 250 252 252 250 247 247 251 255 258 257 254 253 253 255 257 256 254 251 250 248 245 243 241 239 239 239 232 223 218 212 203 196 195
293 290 291 293 291 288 289 292 291 288 280 264 247 237 232 227 224 223 224 224 224 223 223 224 226 225 224 224 223 222 227 233 236 234 232 233 234 234 236 239 241 241 243 241 238 236 236 237 239 241 241 243 245 245 245 240 232 232 242 250 254 253 250 247 249 252 254 253 251 249 246 243 241 238 235 233 230 226 219 213 210 205 199 195 195
288 284 285 287 287 285 286 290 292 291 286 272 253 239 232 229 226 226 226 226 226 226 227 230 231 228 226 226 227 229 233 237 237 235 234 234 235 237 239 241 242 243 243 238 232 231 232 232 236 238 237 237 240 242 238 217 194 209 236 248 254 254 249 243 244 246 248 249 250 248 244 242 240 238 235 230 223 216 209 206 205 203 201 199 199
285 281 282 281 282 284 285 287 289 290 287 276 258 241 231 226 225 225 225 225 226 227 228 230 232 231 230 231 231 231 234 235 235 235 237 237 237 239 241 242 242 243 241 235 229 229 230 230 234 236 233 234 240 237 200 162 174 215 235 241 250 255 252 247 246 245 245 247 249 247 243 240 239 237 233 228 220 210 203 203 205 205 205 205 206
295 291 289 286 287 286 282 282 285 288 288 277 258 242 230 223 224 225 225 225 227 228 229 230 231 231 233 234 235 235 237 236 235 235 236 237 239 241 242 243 242 240 236 229 224 226 229 231 232 232 230 232 227 186 159 174 208 228 230 233 244 251 250 247 247 245 244 247 248 246 242 238 237 236 231 223 214 207 204 205 205 205 205 206 206
308 305 300 296 295 290 283 281 282 286 287 276 258 244 234 226 224 225 224 225 228 231 231 230 230 230 232 235 236 237 238 238 237 236 236 237 239 241 241 239 237 235 231 227 223 226 230 231 229 223 218 208 185 174 186 208 221 223 222 230 242 246 243 242 244 243 244 246 245 243 240 236 233 232 228 218 210 208 208 207 203 202 204 205 203
316 313 308 300 294 288 285 284 282 279 276 265 249 241 238 233 229 225 222 220 223 228 230 230 228 227 229 231 234 236 236 237 237 236 237 237 238 237 233 229 228 229 229 226 225 227 231 230 219 207 205 201 194 198 210 218 218 216 220 230 240 242 239 238 240 242 243 244 242 239 236 233 231 230 227 220 212 208 208 208 206 204 204 202 199
319 318 313 306 296 288 284 282 277 270 266 257 242 232 233 234 232 228 226 224 224 227 231 231 228 226 226 227 230 232 234 235 235 235 236 236 236 232 226 222 225 228 228 227 228 229 230 224 210 207 212 212 208 209 214 217 219 222 225 229 238 244 242 238 238 241 242 242 239 234 229 225 224 225 224 220 215 211 210 210 208 205 202 201 199
320 316 313 308 302 296 288 279 271 265 261 257 247 234 227 228 230 227 225 224 225 226 229 230 227 224 224 225 226 228 232 234 233 233 234 233 232 230 227 226 228 230 229 232 233 230 223 212 207 213 220 218 208 204 210 217 222 224 224 226 234 244 247 245 242 241 240 238 236 231 225 221 221 222 220 216 212 210 211 210 207 203 202 203 202
318 315 313 309 306 303 296 283 272 265 260 257 252 239 225 222 225 225 222 220 218 218 218 220 220 220 222 224 225 226 229 231 230 231 232 231 230 230 229 228 230 232 234 238 238 229 214 208 213 219 223 219 203 196 208 222 225 221 223 230 235 242 249 252 249 245 241 238 234 229 224 221 220 220 217 213 210 210 211 210 206 204 204 206 207
320 318 317 315 313 309 303 292 281 271 264 260 257 246 229 219 217 218 219 219 216 212 210 210 212 217 220 223 223 223 222 222 223 226 230 231 231 231 229 228 229 233 237 240 238 224 205 207 216 220 223 221 205 195 207 230 238 231 228 233 235 237 243 248 247 244 240 237 234 231 227 224 220 216 214 214 214 213 211 210 209 209 208 210 211
325 324 324 325 323 316 309 300 289 278 269 264 262 254 239 228 219 213 214 217 217 214 211 208 210 215 217 219 222 220 215 216 221 224 226 228 229 229 228 227 228 232 237 238 233 212 194 199 207 211 218 224 214 201 205 224 237 234 228 227 227 227 233 238 240 240 239 237 236 233 228 224 218 213 210 212 214 214 214 213 212 212 213 213 214
333 333 334 336 335 329 320 311 300 288 277 268 263 258 252 244 233 220 213 211 211 212 212 212 213 215 216 219 222 220 215 216 222 223 221 221 221 223 226 227 228 232 235 232 216 194 185 187 192 198 207 216 216 205 202 208 218 224 225 222 214 212 217 224 228 232 235 235 232 227 221 215 210 207 208 210 211 213 214 210 206 206 210 212 211
343 345 346 348 349 346 340 331 320 306 288 273 263 258 255 251 242 229 217 210 209 209 208 206 206 208 211 216 217 212 207 207 205 195 188 188 190 193 199 205 210 217 221 214 198 189 185 182 181 186 194 201 202 194 189 193 202 212 218 213 202 198 202 207 210 214 215 214 212 210 206 201 197 198 199 197 195 196 198 197 196 198 198 194 190
351 356 1 2 2 1 357 350 341 327 307 285 269 260 256 249 237 226 217 211 206 203 198 192 189 190 195 200 199 189 175 163 155 150 147 146 144 142 143 148 159 171 175 167 161 163 165 166 167 168 172 180 183 175 166 170 181 190 194 194 193 196 197 197 196 195 192 191 193 196 197 191 185 183 179 173 168 168 171 172 172 171 167 163 160
7 12 17 19 18 15 12 8 1 349 333 309 282 263 252 243 231 219 212 207 202 194 186 179 173 167 162 161 160 154 142 135 134 132 127 124 121 119 119 123 128 135 137 131 125 126 129 134 140 142 142 145 150 151 149 151 156 161 164 165 167 170 173 176 179 181 183 184 182 181 179 174 170 167 162 156 152 148 145 143 143 141 137 135 132
26 27 30 33 32 26 22 20 17 12 4 352 330 290 254 233 220 212 207 201 191 176 163 155 147 140 136 135 135 131 126 122 121 121 120 120 119 117 118 121 123 125 125 122 115 110 108 110 117 122 124 126 128 130 133 136 138 141 144 146 147 146 147 151 156 161 167 170 167 162 159 156 153 150 145 140 138 136 131 128 127 126 120 114 110
39 38 38 42 43 38 33 29 26 25 25 21 12 1 345 260 199 188 183 171 155 142 134 130 127 125 124 123 123 124 124 124 122 121 121 120 119 117 117 118 119 119 117 116 113 108 102 100 102 104 106 111 117 121 123 125 127 128 129 131 132 130 131 135 139 143 148 150 147 142 138 135 131 130 129 127 126 124 119 116 115 115 110 106 101
47 44 42 45 49 49 45 41 36 33 33 33 30 23 17 19 47 93 112 121 124 123 121 119 118 118 118 118 119 120 122 123 120 117 114 112 111 111 111 112 112 112 111 109 109 107 103 99 97 95 95 100 107 112 114 115 116 116 116 117 118 120 123 128 131 132 135 137 137 135 133 127 120 118 119 118 117 115 111 107 104 102 101 100 97
53 51 47 47 51 53 52 51 48 43 38 37 38 35 30 27 33 49 67 84 99 107 111 112 113 114 113 112 111 110 110 110 109 109 109 108 107 107 107 106 106 107 107 106 105 106 105 103 101 98 96 95 98 101 104 105 106 106 106 107 109 112 115 118 119 121 123 125 127 127 126 121 116 112 110 108 107 106 103 100 97 94 94 93 90
57 58 55 53 53 54 54 56 58 55 50 46 44 41 36 32 33 39 48 58 71 86 97 103 106 108 108 108 107 105 104 104 103 104 105 106 106 107 107 105 104 104 104 102 102 102 102 102 101 100 98 96 95 96 97 98 99 98 98 100 104 107 109 109 109 111 114 116 116 116 115 111 106 102 98 97 97 97 96 97 97 97 97 94 88
62 64 62 59 57 57 55 56 59 60 59 58 56 52 46 39 34 36 44 51 56 66 79 90 96 100 102 104 106 106 105 104 103 102 102 102 103 104 104 103 103 102 101 101 101 101 100 99 99 99 99 98 96 95 94 94 95 95 96 97 99 100 101 101 101 101 101 102 102 102 103 101 98 96 95 94 94 95 96 97 98 96 94 90 83
66 68 68 64 61 60 60 59 58 59 59 59 60 63 64 58 47 40 42 47 51 57 68 81 88 92 95 98 101 104 105 105 104 103 102 101 100 100 99 99 99 99 98 98 98 97 96 96 97 98 97 96 93 91 89 89 89 90 90 91 91 90 89 89 89 89 89 90 90 91 93 95 95 95 94 93 93 94 93 92 90 88 84 81 76
Height
792 795 798 801 804 806 809 812 815 817 820 822 823 825 826 828 829 831 833 834 835 837 838 839 840 841 843 844 845 847 848 849 850 852 853 853 854 855 857 858 858 859 860 860 860 861 860 860 860 861 862 862 862 863 863 864 864 864 865 865 865 866 866 866 865 863 862 862 862 861 861 860 859 858 858 858 857 857 856 856 854 853 852 850 849
790 793 796 799 801 803 806 809 812 815 818 820 821 823 824 826 827 829 830 832 833 835 836 837 838 840 841 842 844 845 846 847 849 850 851 852 853 854 855 856 857 857 858 858 859 859 860 859 859 860 861 861 861 862 862 863 863 863 863 864 864 865 865 865 865 863 862 861 861 861 860 859 858 857 857 857 856 856 855 855 854 853 851 850 848
788 791 794 796 798 801 804 806 809 812 815 817 819 821 822 824 826 827 828 830 831 833 834 835 836 838 839 840 841 843 844 845 846 848 849 850 851 852 853 854 855 856 856 857 857 858 858 858 858 858 859 860 860 861 861 862 862 862 862 863 863 864 864 864 864 863 862 860 860 860 859 858 857 856 856 856 856 855 854 854 853 852 851 850 848
786 789 791 793 796 799 801 804 806 808 811 814 816 818 821 822 824 825 826 828 829 831 832 833 835 836 837 838 839 840 842 843 844 845 846 847 848 849 850 852 852 853 854 855 856 856 857 857 856 857 858 858 859 859 860 860 861 861 861 862 862 862 863 863 863 862 861 859 858 858 858 857 856 855 855 855 855 855 854 853 852 852 851 849 848
783 786 788 791 794 796 798 801 803 805 807 809 812 815 818 820 822 823 825 826 827 829 830 831 833 833 834 836 837 838 839 840 842 843 844 845 846 847 848 849 850 851 852 853 854 855 855 855 855 856 857 857 857 858 858 859 859 860 860 860 861 861 861 862 861 861 860 859 857 856 856 856 855 854 855 854 854 854 853 853 852 851 850 848 847
781 783 786 789 791 793 795 798 800 802 804 806 809 812 815 817 820 821 823 824 826 827 828 829 830 831 832 833 834 835 837 838 839 840 841 842 844 845 846 847 848 849 850 851 852 853 853 853 854 854 855 855 855 856 857 857 858 858 858 859 859 860 860 860 860 859 859 857 856 855 855 855 854 853 854 854 853 852 852 851 851 850 849 848 847
778 781 783 785 787 790 792 794 797 799 801 804 806 809 811 813 816 818 821 822 824 825 825 826 827 828 829 830 832 833 834 835 837 838 839 840 841 843 844 845 846 846 847 848 849 850 851 851 852 852 853 853 853 854 855 855 856 856 857 857 858 858 858 858 858 858 857 856 855 855 854 853 853 852 853 853 853 852 851 849 848 848 848 847 846
774 777 780 782 784 786 788 791 794 796 798 801 804 806 808 810 812 814 817 819 821 822 823 824 825 826 827 828 829 830 832 833 834 835 836 838 839 840 841 842 843 844 844 845 846 847 848 849 849 850 850 851 851 852 852 853 854 854 855 856 856 857 857 857 856 856 856 855 854 854 853 853 852 852 852 852 852 851 851 849 847 847 847 846 846
772 774 777 778 780 783 786 788 791 793 796 798 800 803 805 807 809 811 813 815 817 819 821 822 823 823 824 825 827 828 829 830 831 832 834 835 836 837 838 839 840 840 841 842 843 844 845 846 846 847 848 848 849 850 850 851 852 852 853 854 855 855 855 855 855 855 855 854 853 853 853 851 851 850 850 851 851 850 850 849 847 846 846 845 845
769 771 773 775 777 780 783 785 788 791 793 795 796 799 801 804 806 808 810 811 813 815 817 819 820 821 822 823 824 825 826 827 828 829 830 832 833 834 835 835 836 837 838 839 840 841 842 842 843 844 845 845 846 847 848 849 850 850 851 852 852 853 853 854 854 854 854 853 852 852 852 850 849 849 850 850 850 849 848 847 846 845 845 844 844
766 768 769 771 774 777 779 782 785 787 789 791 793 795 797 800 802 804 806 808 810 811 813 815 816 818 820 821 821 822 823 823 825 826 827 829 830 831 832 832 833 834 835 835 836 837 838 839 840 841 842 842 843 844 845 846 847 848 849 849 850 851 851 852 852 853 853 852 851 851 851 849 847 848 849 848 848 847 846 846 845 844 844 843 843
762 764 766 769 771 773 776 778 781 783 785 787 789 791 793 796 798 800 801 803 806 808 809 810 812 814 816 817 818 819 819 820 821 823 824 825 827 828 828 829 830 830 831 832 832 833 835 836 837 838 839 840 840 841 842 843 844 845 846 847 848 849 849 850 851 851 851 851 850 850 849 848 846 846 847 847 846 846 845 844 844 844 843 843 842
760 760 762 765 767 769 773 775 777 779 781 782 784 787 789 791 793 795 797 799 802 804 805 807 808 810 812 813 814 815 815 816 818 819 821 822 823 824 825 826 826 827 827 828 829 830 831 832 834 835 836 837 838 838 839 840 841 842 843 844 845 846 847 847 848 849 849 849 849 848 847 847 845 844 845 845 844 844 843 843 843 843 842 841 841
764 763 761 762 764 767 770 771 773 775 777 779 781 783 785 786 788 791 793 796 798 799 800 802 804 806 808 809 810 811 811 812 814 815 817 818 820 821 822 822 823 823 824 824 825 826 827 828 830 831 832 833 835 836 836 837 838 839 840 841 842 843 844 844 845 846 847 847 846 845 844 845 843 843 843 843 842 842 842 842 842 841 840 839 839
761 765 764 763 763 765 766 768 770 772 774 776 778 780 781 783 785 787 789 791 793 794 796 798 800 801 803 804 806 806 807 808 810 811 812 814 816 817 818 819 819 819 820 820 821 822 823 824 825 827 828 830 831 832 834 835 835 836 837 838 839 840 841 842 842 843 843 843 843 842 841 841 841 840 841 841 840 840 840 840 839 839 838 838 838
750 755 760 762 761 761 763 765 767 769 771 773 774 776 777 779 781 783 786 788 789 790 792 793 795 796 798 800 801 801 802 804 806 807 808 810 811 813 814 814 815 815 815 816 817 818 819 820 821 823 824 826 827 829 831 832 833 834 834 835 836 837 838 838 839 840 840 840 840 839 838 838 838 837 838 838 837 838 838 837 837 837 837 836 836
749 750 753 756 757 758 760 762 763 765 767 769 770 771 773 774 777 779 782 784 785 786 788 789 790 791 793 795 796 796 797 799 801 802 803 805 807 808 809 810 810 811 811 812 813 814 815 816 817 819 820 822 823 825 828 830 831 831 832 832 833 834 834 835 836 837 837 837 837 836 835 835 835 834 834 835 835 835 835 834 834 834 834 834 833
750 750 750 751 753 754 756 757 759 761 763 764 766 767 769 771 773 775 777 779 780 782 783 785 786 787 788 789 790 791 792 794 796 797 798 800 802 803 804 806 807 807 807 808 809 810 810 812 814 815 816 818 820 822 824 826 827 828 829 830 831 831 830 831 832 833 833 834 833 833 832 832 832 831 831 832 832 832 831 830 831 831 831 830 829
747 747 748 749 751 752 752 754 755 757 759 760 761 763 765 767 769 771 773 774 776 778 780 782 782 782 783 784 785 787 788 789 791 792 793 795 797 798 800 802 803 803 804 804 805 805 806 808 809 811 812 813 816 818 820 822 824 825 826 827 828 827 826 827 829 829 829 830 829 829 828 828 828 828 828 829 829 829 828 827 827 827 827 826 826
744 745 746 747 748 749 750 751 752 753 755 756 757 759 761 763 765 767 768 770 772 774 776 777 778 778 779 780 781 782 783 784 785 786 787 789 792 794 796 798 798 799 799 800 801 801 802 803 804 806 808 810 812 814 816 819 820 821 823 824 824 822 823 825 826 826 826 826 825 825 825 825 825 825 825 825 826 826 825 825 824 824 823 823 823
742 744 744 745 745 746 746 748 749 750 752 753 754 756 757 759 760 762 763 766 767 769 770 772 773 774 775 776 777 777 778 778 779 781 782 784 786 789 791 792 793 794 795 796 796 797 798 799 800 801 803 806 808 810 813 815 817 818 820 820 820 820 821 822 822 822 823 822 822 822 822 822 822 822 823 823 823 824 823 823 822 821 820 820 821
742 743 743 743 743 743 743 744 746 747 749 750 752 752 753 755 756 758 760 761 763 764 766 767 768 769 770 772 772 772 773 774 774 776 777 779 781 783 785 786 788 790 791 792 792 792 793 794 795 797 800 802 805 807 810 812 814 816 817 817 818 819 819 819 819 819 820 820 820 820 820 820 820 821 821 821 821 822 822 821 821 820 819 819 819
741 741 741 741 740 740 741 741 742 743 744 746 748 748 750 751 752 754 755 757 758 760 761 763 764 765 766 767 767 767 768 769 770 771 772 774 776 778 779 781 784 786 787 786 787 788 789 790 791 794 797 799 802 804 807 809 811 812 813 814 815 816 816 816 816 817 817 817 818 817 817 817 818 818 818 819 819 820 820 820 820 819 819 819 819
740 740 740 739 739 739 739 739 740 740 740 741 743 744 745 747 748 749 751 753 754 755 756 758 760 760 761 761 761 762 763 764 765 766 767 769 771 772 774 776 778 781 781 781 782 783 784 786 788 791 794 796 799 802 804 806 808 809 811 812 812 813 813 813 814 815 815 815 815 814 813 814 814 814 815 816 817 818 818 818 818 818 817 817 817
739 738 738 738 737 737 737 736 736 736 736 737 738 739 741 743 744 745 747 748 749 750 751 753 754 755 756 756 756 757 758 760 760 761 762 764 766 767 769 770 773 775 776 776 777 779 780 782 785 788 791 793 796 799 801 803 805 807 808 809 809 810 810 811 812 813 813 812 810 809 808 809 810 810 811 813 814 814 814 815 815 815 815 815 815
739 738 737 735 735 734 733 732 732 732 732 733 733 734 736 737 738 740 742 743 744 744 746 747 749 750 750 750 750 752 754 755 756 756 758 760 761 762 763 765 767 769 771 772 773 775 777 779 782 785 788 791 794 796 797 800 802 804 806 806 806 806 807 808 809 809 808 807 805 804 803 804 806 807 808 809 809 810 811 811 812 812 813 813 813
738 738 736 734 733 731 730 729 728 728 728 728 729 729 731 732 733 735 736 737 738 739 740 742 743 744 744 744 746 748 750 751 751 751 753 754 755 756 758 760 762 765 767 768 770 771 773 776 779 783 786 789 791 793 795 797 800 802 803 803 803 802 803 804 804 804 803 802 800 799 800 801 802 803 804 804 805 806 807 808 809 810 811 811 812
735 734 733 732 730 728 727 726 726 725 725 724 724 724 725 727 728 728 729 729 731 732 734 736 737 737 738 739 742 745 746 745 744 745 747 748 749 751 753 755 757 760 761 763 765 768 771 774 778 781 783 785 788 790 792 795 797 799 800 799 798 797 798 799 800 799 798 797 796 797 798 798 799 799 800 801 802 803 805 806 806 807 808 808 809
732 730 729 728 726 725 724 724 723 722 721 720 719 718 718 719 720 720 721 722 723 725 727 728 729 730 732 734 737 739 738 736 736 738 741 742 743 746 748 749 751 753 755 758 762 765 768 772 775 777 780 782 785 787 789 792 795 797 797 796 794 792 793 794 795 794 794 793 793 793 794 795 795 797 798 799 800 801 801 802 803 804 805 806 806
730 728 726 725 723 723 722 721 720 718 717 715 714 713 713 714 714 715 715 716 717 719 721 721 721 724 726 728 729 730 729 728 729 733 736 738 739 741 743 744 746 748 751 755 759 762 765 768 770 773 776 779 781 784 787 790 793 794 794 792 788 785 787 790 790 790 789 788 788 789 791 792 793 794 794 795 796 797 798 799 799 800 801 802 803
728 726 725 723 721 720 720 718 716 714 712 711 710 709 709 710 710 711 711 712 713 715 715 716 717 719 721 722 723 724 723 724 728 731 733 735 737 738 739 741 743 745 748 752 755 758 760 764 766 769 772 775 777 781 785 788 791 792 790 785 780 778 781 785 785 785 785 784 784 786 787 788 789 790 790 791 791 792 793 795 796 797 797 798 799
727 725 724 722 720 719 718 716 714 711 709 707 705 705 705 705 706 706 707 708 709 710 710 712 714 716 718 718 719 720 721 723 727 729 730 732 734 735 737 739 740 743 746 749 751 753 756 759 761 765 769 771 774 777 782 785 787 785 781 777 774 773 775 778 779 780 781 781 781 782 783 783 784 785 785 786 787 788 789 791 792 793 794 795 796
726 724 722 721 718 717 716 714 711 709 706 703 701 701 701 701 702 702 703 705 706 707 707 709 711 713 715 716 717 718 718 721 723 725 727 729 731 732 734 736 737 740 742 744 746 749 752 754 757 761 765 768 770 774 777 777 775 772 770 771 770 769 770 773 775 776 777 777 778 778 779 780 781 782 782 782 783 784 786 788 789 791 792 792 793
723 721 720 718 716 714 713 711 708 706 703 700 698 697 697 698 698 700 701 702 703 704 704 705 707 709 711 712 713 715 716 718 720 721 723 725 727 729 731 733 734 736 737 738 741 744 746 749 753 757 761 762 763 765 765 764 763 764 766 767 765 764 767 770 771 772 772 774 775 775 775 777 778 779 779 779 780 782 784 786 787 789 789 790 790
719 717 715 713 712 709 708 707 705 703 700 697 694 693 694 694 695 696 697 698 699 699 699 699 701 704 706 707 709 711 713 715 717 718 720 723 725 727 728 729 730 730 731 733 736 739 741 745 749 752 753 754 755 756 758 759 761 762 762 761 760 761 764 765 765 766 768 769 771 772 773 774 775 776 776 776 777 779 781 783 785 786 787 788 789
715 712 710 709 707 704 703 702 700 698 696 693 690 689 689 690 691 692 693 694 694 695 696 697 699 700 702 704 706 708 710 712 714 716 718 720 721 722 723 724 724 724 725 728 730 733 737 742 744 744 745 747 750 753 756 758 758 757 756 756 757 758 758 758 760 762 764 766 768 769 769 770 771 772 773 774 774 775 777 780 782 784 785 787 788
713 710 707 705 703 701 699 697 695 693 691 689 687 684 683 685 686 687 688 689 690 692 694 696 697 698 699 700 702 704 706 708 711 713 715 716 717 718 719 719 719 720 721 722 725 729 734 737 738 738 739 742 745 749 751 752 752 752 753 754 755 754 753 754 756 758 761 764 766 766 765 765 766 768 770 771 773 774 776 778 780 782 784 786 787
710 707 705 702 699 697 695 693 691 689 687 685 684 683 681 681 682 683 683 683 684 686 688 691 693 695 695 696 698 700 703 706 708 710 711 712 713 714 715 716 716 716 716 717 720 724 729 732 733 733 735 739 742 744 747 747 747 749 752 753 753 752 751 750 752 754 757 760 762 762 761 761 763 765 768 770 772 774 776 778 779 781 783 785 786
707 704 701 698 695 693 691 689 687 685 683 681 681 681 679 677 677 679 681 681 681 682 683 684 686 689 691 693 695 698 700 702 703 704 706 708 709 710 712 713 713 713 712 713 717 721 725 727 728 730 733 736 739 741 743 743 742 744 747 746 746 748 749 748 749 751 754 756 757 757 757 758 760 762 765 768 770 772 774 777 779 780 782 784 785
704 701 698 695 692 689 687 686 684 682 679 678 678 679 678 676 674 675 677 679 680 681 681 681 681 682 685 688 691 693 695 697 698 700 702 704 705 707 708 709 710 709 710 711 715 718 721 723 725 727 730 733 735 736 737 738 737 736 736 736 738 743 747 748 748 749 750 751 751 752 753 755 757 760 763 765 768 771 773 775 777 779 780 782 783
701 698 695 693 690 687 685 684 681 678 677 676 676 676 677 677 675 674 673 674 675 676 677 678 679 680 682 685 686 688 691 694 696 699 701 702 703 705 706 707 707 708 710 711 713 715 717 719 722 724 726 729 730 731 732 733 732 731 731 734 738 742 745 746 746 747 748 748 749 751 754 756 758 761 763 765 767 770 772 773 775 777 778 780 781
700 696 693 691 689 686 683 681 678 675 674 674 673 674 675 676 675 674 672 671 672 673 673 674 676 677 680 683 685 687 689 692 695 698 700 701 702 704 705 706 707 708 710 711 711 712 713 715 717 719 721 724 726 727 728 729 730 731 732 735 738 739 740 741 742 744 746 748 750 753 756 759 761 763 765 765 766 768 770 772 774 775 776 777 779
699 695 692 689 687 684 682 679 676 675 674 672 671 671 672 673 673 672 671 670 670 671 671 672 672 674 678 682 684 686 687 690 693 695 698 699 701 703 704 706 706 708 710 712 713 713 713 713 714 717 718 720 722 723 725 726 728 729 730 732 734 736 737 738 741 744 746 748 751 753 755 758 760 763 764 765 765 766 768 771 773 774 775 776 777
699 695 692 689 686 684 681 679 677 676 674 672 670 669 669 670 670 670 670 669 669 668 669 670 671 673 677 681 683 685 687 689 691 693 696 698 700 702 704 705 706 707 710 713 715 715 715 714 714 716 718 719 721 722 724 725 727 728 729 732 735 738 739 741 743 745 747 748 750 753 755 756 759 761 762 763 763 765 767 769 771 773 775 776 777
699 696 693 689 686 685 683 681 679 677 675 673 671 670 668 668 668 668 668 668 667 667 668 670 672 675 678 680 682 684 686 688 690 693 695 697 699 701 704 705 706 707 711 714 715 717 718 718 718 718 719 719 721 723 726 728 730 732 733 736 738 741 743 744 745 747 748 749 751 752 754 756 757 758 759 761 763 764 766 768 770 772 774 775 777
700 697 694 691 688 686 685 683 682 680 677 676 675 673 672 670 668 667 667 667 667 668 669 672 674 676 678 680 682 683 685 687 690 692 695 697 699 701 704 705 706 708 711 714 715 717 719 721 721 722 722 722 723 726 729 731 733 735 737 739 741 742 744 745 747 748 750 751 753 754 755 756 758 758 759 760 762 764 765 768 770 771 773 775 776
699 697 696 693 690 688 687 686 685 683 681 680 678 678 678 676 674 671 670 670 670 670 671 673 675 677 678 679 682 683 685 687 689 693 696 698 700 703 706 708 708 709 712 714 715 717 720 722 724 727 730 730 729 729 732 734 736 738 740 741 743 744 745 747 748 750 752 753 754 755 756 757 759 761 760 761 762 764 765 768 770 772 773 775 776
700 698 697 695 693 691 690 688 687 686 686 684 683 683 684 684 683 680 678 677 676 675 675 676 678 679 680 682 684 687 689 691 693 696 698 700 703 706 709 711 711 711 713 716 718 720 722 723 724 729 736 738 736 734 735 737 738 740 742 745 746 747 748 749 750 752 754 754 755 757 758 759 760 761 762 763 763 764 765 767 770 772 775 776 778
703 701 700 699 697 695 695 693 690 689 690 690 688 688 689 691 691 689 688 687 685 684 682 682 683 683 683 684 687 690 693 696 700 702 703 704 706 709 710 712 714 715 716 718 721 724 723 721 722 728 737 742 742 739 738 740 742 744 746 749 750 750 751 752 753 755 756 757 757 759 760 760 761 763 764 765 766 766 767 769 771 774 776 778 779
707 705 704 702 701 700 700 698 694 692 692 694 694 693 694 697 699 698 696 695 694 693 692 691 690 689 689 689 691 693 695 699 704 707 708 710 711 712 711 713 716 719 720 723 726 725 721 719 724 732 741 745 745 743 743 744 746 748 751 753 754 754 755 755 756 758 759 760 760 761 762 762 764 766 767 768 769 769 770 771 773 775 777 779 780
711 708 706 705 705 704 703 702 699 697 697 698 699 698 698 701 705 708 707 704 704 705 703 700 697 696 696 697 699 699 699 702 706 709 711 713 716 716 715 716 720 724 727 729 727 722 720 724 732 741 746 748 747 747 747 749 751 753 755 756 757 757 758 758 758 759 760 761 762 763 764 765 766 767 768 770 771 771 772 774 775 776 778 779 780